TimeEDT,TemperatureF,Dew PointF,Humidity,Sea Level PressureIn,VisibilityMPH,Wind Direction,Wind SpeedMPH,Gust SpeedMPH,PrecipitationIn,Events,Conditions,WindDirDegrees,DateUTC
1:51 AM,37.0,35.1,93,30.08,10.0,Calm,Calm,-,0.05,,Overcast,0,2012-10-14 05:51:00
2:04 AM,37.4,35.6,93,30.03,3.0,South,4.6,-,0.01,Snow,Light Snow,190,2012-10-14 06:04:00
2:51 AM,37.0,36.0,96,30.04,2.5,SW,3.5,-,0.04,Rain,Light Rain,220,2012-10-14 06:51:00
3:01 AM,37.4,35.6,93,29.99,3.0,SSW,4.6,-,0.01,Snow,Light Snow,210,2012-10-14 07:01:00
3:15 AM,37.4,35.6,93,29.98,2.0,WSW,4.6,-,0.01,,Overcast,240,2012-10-14 07:15:00
3:31 AM,37.4,37.4,100,29.97,2.0,WSW,4.6,-,0.03,Rain,Rain,240,2012-10-14 07:31:00
3:49 AM,37.4,37.4,100,29.96,3.0,SW,8.1,-,0.05,Rain,Light Rain,220,2012-10-14 07:49:00
3:51 AM,37.9,37.0,97,30.00,3.0,SW,8.1,-,0.05,Rain,Light Rain,230,2012-10-14 07:51:00
4:25 AM,39.2,37.4,93,29.96,3.0,SW,9.2,-,0.03,Rain,Rain,220,2012-10-14 08:25:00
4:51 AM,39.0,37.9,96,29.98,4.0,SW,12.7,-,0.05,Rain,Light Rain,220,2012-10-14 08:51:00
5:51 AM,39.9,39.0,97,29.98,3.0,SSW,13.8,-,0.01,Rain,Light Rain,210,2012-10-14 09:51:00
7:11 AM,41.0,39.2,93,29.94,2.5,SW,12.7,-,0.01,Rain,Light Rain,220,2012-10-14 11:11:00
7:20 AM,41.0,39.2,93,29.94,4.0,SW,11.5,-,0.01,,Overcast,220,2012-10-14 11:20:00
7:51 AM,42.1,41.0,96,29.99,3.0,SW,10.4,-,0.01,Rain,Light Rain,230,2012-10-14 11:51:00
8:15 AM,42.8,41.0,93,29.95,8.0,SW,9.2,-,0.01,,Overcast,230,2012-10-14 12:15:00
8:51 AM,43.0,42.1,97,29.99,4.0,SW,8.1,-,0.01,,Overcast,230,2012-10-14 12:51:00
9:06 AM,42.8,42.8,100,29.95,2.5,SW,9.2,-,N/A,,Overcast,220,2012-10-14 13:06:00
9:19 AM,44.6,42.8,93,29.95,3.0,SW,9.2,-,N/A,,Overcast,230,2012-10-14 13:19:00
9:51 AM,44.1,43.0,96,29.99,3.0,SW,10.4,-,N/A,,Overcast,220,2012-10-14 13:51:00
10:39 AM,44.6,44.6,100,29.95,6.0,SW,9.2,-,N/A,,Overcast,220,2012-10-14 14:39:00
10:48 AM,46.4,44.6,93,29.95,5.0,SW,6.9,-,N/A,,Overcast,230,2012-10-14 14:48:00
10:51 AM,46.0,45.0,96,29.99,5.0,SW,6.9,-,N/A,,Overcast,230,2012-10-14 14:51:00
11:01 AM,46.4,44.6,93,29.94,9.0,SW,6.9,-,N/A,,Overcast,230,2012-10-14 15:01:00
11:51 AM,46.9,46.0,97,29.98,3.0,SW,5.8,-,0.00,Rain,Light Rain,220,2012-10-14 15:51:00
12:26 PM,48.2,46.4,93,29.94,2.0,SW,4.6,-,0.01,,Overcast,220,2012-10-14 16:26:00
12:34 PM,48.2,46.4,93,29.93,1.8,SW,5.8,-,0.01,,Overcast,230,2012-10-14 16:34:00
12:43 PM,48.2,46.4,93,29.93,2.5,SW,5.8,-,0.01,,Overcast,230,2012-10-14 16:43:00
12:51 PM,48.0,46.9,96,29.96,4.0,SW,5.8,-,0.01,,Overcast,230,2012-10-14 16:51:00
1:46 PM,50.0,48.2,94,29.91,2.0,SW,3.5,-,0.00,,Overcast,230,2012-10-14 17:46:00
1:51 PM,50.0,48.9,96,29.94,1.8,SW,5.8,-,0.00,,Overcast,220,2012-10-14 17:51:00
2:03 PM,50.0,50.0,100,29.90,2.0,WSW,4.6,-,N/A,,Overcast,240,2012-10-14 18:03:00
2:17 PM,51.8,51.8,100,29.89,1.5,SW,4.6,-,N/A,,Overcast,230,2012-10-14 18:17:00
2:51 PM,52.0,51.1,97,29.90,2.0,SW,4.6,-,N/A,,Overcast,230,2012-10-14 18:51:00
3:05 PM,51.8,51.8,100,29.88,1.8,SW,4.6,-,N/A,,Overcast,230,2012-10-14 19:05:00
3:13 PM,51.8,51.8,100,29.88,2.5,SW,8.1,-,N/A,,Overcast,220,2012-10-14 19:13:00
3:20 PM,51.8,51.8,100,29.87,5.0,SW,9.2,-,0.01,,Overcast,230,2012-10-14 19:20:00
3:34 PM,51.8,51.8,100,29.87,6.0,SW,6.9,-,0.01,,Overcast,230,2012-10-14 19:34:00
3:51 PM,53.1,52.0,96,29.89,5.0,WSW,4.6,-,0.01,,Overcast,240,2012-10-14 19:51:00
4:39 PM,53.6,51.8,94,29.85,5.0,SW,5.8,-,N/A,,Overcast,230,2012-10-14 20:39:00
4:51 PM,54.0,53.1,97,29.86,5.0,SW,6.9,-,N/A,,Overcast,220,2012-10-14 20:51:00
5:16 PM,53.6,53.6,100,29.83,5.0,WSW,5.8,-,N/A,,Overcast,240,2012-10-14 21:16:00
5:51 PM,54.0,53.1,97,29.86,5.0,WSW,5.8,-,N/A,,Overcast,250,2012-10-14 21:51:00
6:44 PM,53.6,51.8,94,29.83,6.0,WSW,3.5,-,N/A,,Mostly Cloudy,240,2012-10-14 22:44:00
6:51 PM,53.1,52.0,96,29.85,6.0,WSW,4.6,-,N/A,,Mostly Cloudy,240,2012-10-14 22:51:00
7:31 PM,51.8,50.0,94,29.81,1.5,Calm,Calm,-,N/A,,Partly Cloudy,0,2012-10-14 23:31:00
7:51 PM,48.9,48.9,100,29.82,0.2,Calm,Calm,-,N/A,Fog,Fog,0,2012-10-14 23:51:00
8:06 PM,48.2,48.2,100,29.79,0.5,Calm,Calm,-,N/A,Fog,Fog,0,2012-10-15 00:06:00
8:13 PM,48.2,48.2,100,29.80,0.2,WNW,3.5,-,N/A,Fog,Fog,290,2012-10-15 00:13:00
8:21 PM,48.2,48.2,100,29.80,1.0,West,3.5,-,N/A,,Mist,260,2012-10-15 00:21:00
8:25 PM,48.2,48.2,100,29.80,2.0,Calm,Calm,-,N/A,,Partly Cloudy,0,2012-10-15 00:25:00
8:43 PM,48.2,48.2,100,29.78,3.0,Calm,Calm,-,N/A,,Clear,0,2012-10-15 00:43:00
9:19 PM,48.2,48.2,100,29.78,1.8,Calm,Calm,-,N/A,,Clear,0,2012-10-15 01:19:00
9:23 PM,50.0,48.2,94,29.78,4.0,WSW,4.6,-,N/A,,Clear,240,2012-10-15 01:23:00
9:51 PM,53.1,52.0,96,29.79,9.0,WSW,3.5,-,N/A,,Clear,250,2012-10-15 01:51:00
10:51 PM,57.0,53.1,87,29.76,10.0,WSW,8.1,-,N/A,,Scattered Clouds,240,2012-10-15 02:51:00
11:51 PM,57.0,52.0,83,29.75,10.0,SW,17.3,23.0,N/A,,Mostly Cloudy,220,2012-10-15 03:51:00